When you browse on this site, cookies collect data to enhance your experience and personalize the content and advertising you see.
Visit our Privacy Policy to learn more. By continuing to use the site, you agree to this use of cookies and data.
  • In Hungary
  • List of Countries
  • For 7 days
  • Water Temperature
  • Satellite Maps
  • Weather Map
  • News
  • Weather Widgets
  • user-avatar
    Login

    Hourly Weather Stavropol'

    Today, 11 December, Tuesday

    Time Temperature Precipitation Wind Pressure Humidity
    00:00 +2°C° 0 mm 3 mps 723 mmHg 89%
    01:00 +2°C° 0 mm 3 mps 723 mmHg 89%
    02:00 +2°C° 0 mm 3 mps 723 mmHg 90%
    03:00 +2°C° 0 mm 2 mps 723 mmHg 94%
    04:00 +1°C° 0 mm 3 mps 722 mmHg 93%
    05:00 0°C° 0 mm 4 mps 722 mmHg 92%
    06:00 0°C° 0 mm 4 mps 722 mmHg 91%
    07:00 +1°C° 0 mm 5 mps 722 mmHg 91%
    08:00 +1°C° 0 mm 5 mps 721 mmHg 90%
    09:00 +1°C° 0 mm 5 mps 721 mmHg 89%
    10:00 +2°C° 0 mm 6 mps 720 mmHg 87%
    11:00 +3°C° 0 mm 7 mps 720 mmHg 84%
    12:00 +3°C° 0 mm 7 mps 719 mmHg 81%
    13:00 +4°C° 0 mm 7 mps 719 mmHg 81%
    14:00 +4°C° 0 mm 7 mps 718 mmHg 82%
    15:00 +4°C° 0 mm 6 mps 718 mmHg 82%
    16:00 +3°C° 0.2 mm 5 mps 719 mmHg 84%
    17:00 +4°C° 0.2 mm 4 mps 719 mmHg 87%
    18:00 +4°C° 0.2 mm 3 mps 719 mmHg 89%
    19:00 +4°C° 0.1 mm 3 mps 719 mmHg 89%
    20:00 +5°C° 0.1 mm 2 mps 720 mmHg 89%
    21:00 +5°C° 0.1 mm 2 mps 720 mmHg 88%
    22:00 +6°C° 0 mm 1 mps 720 mmHg 86%
    23:00 +6°C° 0 mm 1 mps 721 mmHg 84%

    Tomorrow, 12 December, Wednesday

    Time Temperature Precipitation Wind Pressure Humidity
    00:00 +6°C° 0 mm 1 mps 721 mmHg 81%
    01:00 +5°C° 0 mm 1 mps 721 mmHg 83%
    02:00 +5°C° 0 mm 1 mps 722 mmHg 85%
    03:00 +5°C° 0 mm 1 mps 722 mmHg 86%
    04:00 +4°C° 0 mm 2 mps 722 mmHg 88%
    05:00 +3°C° 0 mm 2 mps 722 mmHg 89%
    06:00 +3°C° 0 mm 2 mps 722 mmHg 91%
    07:00 +3°C° 0 mm 2 mps 722 mmHg 91%
    08:00 +4°C° 0 mm 2 mps 722 mmHg 92%
    09:00 +3°C° 0 mm 3 mps 722 mmHg 93%
    10:00 +5°C° 0 mm 2 mps 722 mmHg 89%
    11:00 +6°C° 0 mm 2 mps 722 mmHg 85%
    12:00 +7°C° 0 mm 2 mps 722 mmHg 81%
    13:00 +6°C° 0.4 mm 2 mps 722 mmHg 83%
    14:00 +7°C° 0.4 mm 1 mps 722 mmHg 86%
    15:00 +7°C° 0.4 mm 1 mps 722 mmHg 89%
    16:00 +6°C° 1.1 mm 1 mps 723 mmHg 91%
    17:00 +6°C° 1.1 mm 1 mps 723 mmHg 93%
    18:00 +5°C° 1.1 mm 2 mps 723 mmHg 95%
    19:00 +4°C° 1.2 mm 2 mps 724 mmHg 93%
    20:00 +3°C° 1.2 mm 3 mps 724 mmHg 92%
    21:00 +3°C° 1.2 mm 3 mps 724 mmHg 90%
    22:00 +3°C° 0.4 mm 3 mps 724 mmHg 88%
    23:00 +3°C° 0.4 mm 2 mps 725 mmHg 85%

    Day after tomorrow, 13 December, Thursday

    Time Temperature Precipitation Wind Pressure Humidity
    00:00 +3°C° 0.4 mm 2 mps 725 mmHg 83%
    01:00 +3°C° 0.2 mm 2 mps 725 mmHg 83%
    02:00 +3°C° 0.2 mm 2 mps 726 mmHg 83%
    03:00 +4°C° 0.2 mm 1 mps 726 mmHg 83%
    04:00 +4°C° 0 mm 1 mps 726 mmHg 84%
    05:00 +3°C° 0 mm 1 mps 726 mmHg 85%
    06:00 +3°C° 0 mm 1 mps 726 mmHg 86%
    07:00 +3°C° 0 mm 1 mps 727 mmHg 86%
    08:00 +3°C° 0 mm 1 mps 727 mmHg 85%
    09:00 +3°C° 0 mm 1 mps 728 mmHg 85%
    10:00 +3°C° 0 mm 2 mps 728 mmHg 82%
    11:00 +3°C° 0 mm 2 mps 728 mmHg 79%
    12:00 +4°C° 0 mm 2 mps 728 mmHg 76%
    13:00 +4°C° 0 mm 2 mps 729 mmHg 75%
    14:00 +3°C° 0 mm 3 mps 729 mmHg 74%
    15:00 +3°C° 0 mm 3 mps 729 mmHg 73%
    16:00 +3°C° 0 mm 2 mps 730 mmHg 75%
    17:00 +3°C° 0 mm 2 mps 730 mmHg 78%
    18:00 +2°C° 0 mm 2 mps 731 mmHg 81%
    19:00 +2°C° 0.1 mm 2 mps 731 mmHg 81%
    20:00 +2°C° 0.1 mm 2 mps 731 mmHg 82%
    21:00 +2°C° 0.1 mm 2 mps 732 mmHg 82%
    22:00 +2°C° 0 mm 2 mps 732 mmHg 83%
    23:00 +1°C° 0 mm 2 mps 732 mmHg 83%

    14 December, Friday

    Time Temperature Precipitation Wind Pressure Humidity
    00:00 +1°C° 0 mm 2 mps 732 mmHg 84%
    01:00 +1°C° 0 mm 2 mps 733 mmHg 85%
    02:00 +2°C° 0 mm 1 mps 733 mmHg 85%
    03:00 +1°C° 0 mm 1 mps 733 mmHg 86%
    04:00 +1°C° 0 mm 1 mps 733 mmHg 86%
    05:00 +1°C° 0 mm 1 mps 733 mmHg 86%
    06:00 +1°C° 0 mm 1 mps 733 mmHg 87%
    07:00 +1°C° 0 mm 1 mps 733 mmHg 85%
    08:00 +2°C° 0 mm 1 mps 733 mmHg 83%
    09:00 +2°C° 0 mm 1 mps 733 mmHg 81%
    10:00 +3°C° 0 mm 1 mps 733 mmHg 75%
    11:00 +4°C° 0 mm 1 mps 733 mmHg 69%
    12:00 +5°C° 0 mm 1 mps 732 mmHg 63%
    13:00 +5°C° 0 mm 1 mps 732 mmHg 62%
    14:00 +4°C° 0 mm 0 mps 732 mmHg 62%
    15:00 +5°C° 0 mm 0 mps 732 mmHg 62%
    16:00 +4°C° 0 mm 0 mps 733 mmHg 65%
    17:00 +3°C° 0 mm 0 mps 733 mmHg 68%
    18:00 +2°C° 0 mm 0 mps 733 mmHg 71%
    19:00 +3°C° 0 mm 1 mps 733 mmHg 72%
    20:00 +3°C° 0 mm 1 mps 733 mmHg 73%
    21:00 +2°C° 0 mm 1 mps 734 mmHg 73%
    22:00 +2°C° 0 mm 1 mps 734 mmHg 73%
    23:00 +2°C° 0 mm 1 mps 734 mmHg 74%

    15 December, Saturday

    Time Temperature Precipitation Wind Pressure Humidity
    00:00 +2°C° 0 mm 1 mps 734 mmHg 74%
    01:00 +2°C° 0 mm 1 mps 734 mmHg 73%
    02:00 +2°C° 0 mm 1 mps 734 mmHg 72%
    03:00 +2°C° 0 mm 1 mps 734 mmHg 72%
    04:00 +2°C° 0 mm 1 mps 734 mmHg 72%
    05:00 +2°C° 0 mm 1 mps 735 mmHg 71%
    06:00 +2°C° 0 mm 1 mps 735 mmHg 71%
    07:00 +2°C° 0 mm 1 mps 735 mmHg 71%
    08:00 +2°C° 0 mm 1 mps 735 mmHg 70%
    09:00 +3°C° 0 mm 1 mps 736 mmHg 69%
    10:00 +2°C° 0 mm 2 mps 736 mmHg 67%
    11:00 +3°C° 0 mm 2 mps 736 mmHg 65%
    12:00 +4°C° 0 mm 2 mps 736 mmHg 63%
    13:00 +4°C° 0 mm 2 mps 736 mmHg 65%
    14:00 +4°C° 0 mm 2 mps 736 mmHg 66%
    15:00 +4°C° 0 mm 2 mps 736 mmHg 68%
    16:00 +3°C° 0 mm 2 mps 736 mmHg 73%
    17:00 +2°C° 0 mm 2 mps 737 mmHg 79%
    18:00 +2°C° 0 mm 1 mps 737 mmHg 84%
    19:00 +2°C° 0 mm 1 mps 737 mmHg 86%
    20:00 +2°C° 0 mm 1 mps 737 mmHg 87%
    21:00 +1°C° 0 mm 1 mps 738 mmHg 89%
    22:00 +1°C° 0 mm 1 mps 738 mmHg 90%
    23:00 +1°C° 0 mm 1 mps 738 mmHg 91%

    16 December, Sunday

    Time Temperature Precipitation Wind Pressure Humidity
    00:00 0°C° 0 mm 1 mps 738 mmHg 91%
    01:00 0°C° 0 mm 1 mps 738 mmHg 92%
    02:00 -2°C° 0 mm 2 mps 738 mmHg 92%
    03:00 -2°C° 0 mm 2 mps 738 mmHg 92%
    04:00 -2°C° 0 mm 2 mps 738 mmHg 92%
    05:00 -3°C° 0 mm 2 mps 738 mmHg 91%
    06:00 -4°C° 0 mm 3 mps 738 mmHg 91%
    07:00 -4°C° 0 mm 3 mps 738 mmHg 89%
    08:00 -3°C° 0 mm 4 mps 738 mmHg 87%
    09:00 -3°C° 0 mm 4 mps 738 mmHg 86%
    10:00 -4°C° 0 mm 5 mps 738 mmHg 82%
    11:00 -2°C° 0 mm 5 mps 737 mmHg 78%
    12:00 -2°C° 0 mm 6 mps 737 mmHg 74%
    13:00 -3°C° 0 mm 6 mps 737 mmHg 74%
    14:00 -3°C° 0 mm 6 mps 737 mmHg 74%
    15:00 -3°C° 0 mm 6 mps 737 mmHg 74%
    16:00 -3°C° 0 mm 6 mps 737 mmHg 77%
    17:00 -4°C° 0 mm 6 mps 737 mmHg 79%
    18:00 -4°C° 0 mm 7 mps 737 mmHg 81%
    19:00 -4°C° 0 mm 7 mps 737 mmHg 81%
    20:00 -6°C° 0 mm 7 mps 737 mmHg 81%
    21:00 -6°C° 0 mm 7 mps 737 mmHg 81%
    22:00 -6°C° 0 mm 7 mps 737 mmHg 81%
    23:00 -6°C° 0 mm 7 mps 737 mmHg 80%
    Show more